Simultaneous Nadir Overpasses (SNOs) Predictions

Prediction of SNOs between METOP-B and NOAA-19 Satellite Orbit:

Table of predicted SNOs for the next 14.0 days since TLE Epoch: 1/18/2013
Index Date (METOP-B) Time (METOP-B) Lat,Lon (METOP-B) SZA (METOP-B ) Date (NOAA-19) Time (NOAA-19) Lat,Lon (NOAA-19) SZA (NOAA-19 ) Distance(km) Time Diff (sec)
1 01/24/2013 20:56:08 -73.48, 39.68 87.40 01/24/2013 20:54:56 -73.50, 38.41 87.31 40.09 72
2 01/24/2013 21:46:54 73.20,-153.63 92.34 01/24/2013 21:45:57 73.21,-153.70 92.37 2.91 57
3 01/24/2013 22:37:36 -73.16, 13.63 87.70 01/24/2013 22:36:54 -73.17, 13.66 87.70 1.13 42
4 01/24/2013 23:28:17 73.13,-179.12 92.26 01/24/2013 23:28:00 73.12,-179.02 92.25 3.31 17
5 01/25/2013 00:18:58 -73.15, -11.75 87.74 01/25/2013 00:18:58 -73.13, -11.77 87.76 2.29 0
6 01/25/2013 01:09:39 73.11, 155.50 92.23 01/25/2013 01:10:04 73.08, 155.55 92.19 3.14 25
7 01/25/2013 02:00:21 -73.08, -37.24 87.82 01/25/2013 02:01:02 -73.09, -37.20 87.82 1.74 41
8 01/25/2013 02:51:02 73.04, 130.01 92.15 01/25/2013 02:52:08 73.04, 130.12 92.13 3.56 66
9 01/25/2013 03:41:49 -72.76, -63.26 88.12 01/25/2013 03:43:00 -72.75, -61.98 88.20 42.24 71




NCC Satellite Simultaneous Nadir Overpasses (SNOs) Prediction Service
